Dewpoint
52 52 52 53 53 53 54 52 52 52 51 50 51 52 52 51 51 48 45 42 46 50 55 40 29 25 21 19 18 19 15 14 14 14 15 16 15 16 18 20 30 34 44 48 66
53 52 52 53 53 52 53 53 53 52 52 51 50 50 52 51 46 44 46 51 52 53 29 27 25 22 19 17 17 15 14 13 15 15 15 16 17 16 15 21 24 33 31 63 65
53 53 54 54 54 53 52 53 53 52 52 52 51 51 51 48 42 33 50 52 52 54 25 19 25 22 17 19 17 14 12 14 15 17 19 18 16 17 15 16 21 22 22 43 61
54 54 54 54 54 54 54 53 53 52 52 52 52 50 49 46 5 31 56 55 54 52 24 19 15 21 22 17 17 11 14 14 13 15 15 15 18 16 15 15 21 20 25 23 46
55 55 54 54 54 53 53 54 53 52 51 51 50 51 46 41 39 21 60 55 48 45 22 17 13 15 16 19 14 13 14 13 13 12 13 14 14 15 16 17 18 17 20 20 23
54 53 54 54 53 54 54 53 54 53 52 51 51 49 44 33 23 44 57 49 47 34 24 15 13 19 18 16 15 14 14 12 13 12 12 12 12 15 16 19 18 19 17 18 19
55 54 53 53 53 53 54 53 53 53 52 52 52 47 45 39 39 48 49 46 44 25 22 17 15 19 21 16 16 15 14 14 13 13 12 14 12 14 16 17 17 17 17 17 18
54 54 53 52 53 53 53 53 53 53 52 52 53 47 42 44 44 43 42 31 35 26 24 21 16 21 21 22 20 16 15 14 15 14 14 12 11 16 17 17 17 17 16 18 19
53 53 53 52 52 52 53 53 52 54 53 52 49 46 37 45 44 43 34 29 29 27 26 20 19 21 24 21 18 17 15 14 14 15 13 13 12 15 19 16 16 17 17 18 18
53 53 52 52 52 52 53 53 51 53 51 49 48 44 40 34 42 38 35 28 27 26 25 24 25 23 21 19 13 17 15 15 14 17 14 15 13 16 18 17 18 19 19 20 21
53 52 52 52 51 53 52 45 47 46 48 41 39 38 34 38 37 36 35 33 32 29 26 26 22 21 21 21 20 18 16 17 18 17 16 15 15 16 17 18 16 17 18 19 22
52 52 51 53 51 52 51 44 41 40 39 46 44 41 40 39 35 34 33 30 30 25 23 21 20 21 23 21 21 20 19 18 18 19 16 17 16 17 18 18 17 17 18 19 24
51 52 52 52 51 48 46 44 45 43 34 35 44 41 41 40 37 36 30 26 26 24 20 19 19 23 21 21 21 21 19 19 17 21 18 17 16 18 18 18 20 22 23 24 24
51 50 52 52 46 45 44 45 46 45 32 32 41 40 40 38 35 38 26 25 28 22 20 19 20 20 20 19 20 18 22 22 22 19 16 17 13 16 19 17 19 20 21 22 24
50 50 52 52 47 44 44 47 44 40 26 33 39 40 39 33 33 31 18 16 24 27 23 21 22 21 21 21 22 20 23 23 23 19 16 16 13 15 22 20 18 19 23 31 34
49 50 51 48 48 47 47 46 44 33 27 33 36 35 34 30 32 30 21 23 26 25 26 25 26 24 23 23 21 22 20 20 20 17 14 15 14 14 16 17 23 28 30 35 35
49 49 49 47 43 46 47 42 33 30 33 30 30 33 30 29 28 28 23 21 22 21 22 24 24 25 25 23 24 21 19 16 15 14 14 18 15 16 22 24 30 32 33 34 36
48 48 48 47 48 46 44 35 29 30 30 41 29 32 28 29 28 27 25 23 25 23 25 22 21 23 25 22 21 21 20 16 12 14 14 22 19 19 31 37 37 36 36 35 35
49 46 44 45 48 47 40 33 31 33 41 40 31 28 26 28 27 26 25 23 25 25 23 24 27 31 31 29 26 23 18 19 20 26 22 21 25 26 36 37 37 36 36 35 34
46 43 43 45 47 43 38 34 35 39 42 39 35 29 26 30 30 25 26 31 34 30 30 32 29 34 34 31 31 27 27 25 26 23 21 23 26 23 34 34 35 35 35 35 35
46 39 43 48 45 41 36 36 35 41 43 40 39 37 32 33 34 33 30 34 35 36 33 33 30 31 31 30 30 29 28 30 29 26 22 22 24 31 34 34 34 35 36 37 37
44 35 48 46 39 39 37 41 38 41 46 41 39 40 38 36 34 36 35 35 37 36 34 36 31 29 31 32 36 33 34 32 29 27 27 26 25 33 35 36 36 34 35 36 35
39 39 46 52 38 38 41 39 39 41 42 39 41 39 37 37 35 37 36 37 38 39 36 35 31 24 17 29 32 32 33 36 34 32 30 30 28 36 37 37 38 35 35 35 36
41 35 45 48 46 42 40 39 39 45 43 42 35 34 35 34 37 36 37 42 42 42 44 40 33 25 22 20 31 30 31 31 30 28 29 31 31 34 36 35 34 33 35 36 37
41 40 43 40 42 42 42 39 39 39 41 44 37 33 31 31 32 33 34 39 39 42 39 32 29 30 31 32 32 30 30 30 28 29 26 26 32 33 34 33 32 36 36 35 35
41 42 43 42 43 42 40 37 37 35 33 33 34 34 32 31 31 30 31 34 36 38 37 35 31 30 28 31 31 30 30 30 30 30 30 30 29 31 31 33 35 35 35 35 36
44 48 43 41 40 40 40 38 37 39 36 37 35 33 32 33 33 33 33 33 36 36 34 32 32 28 25 29 26 22 25 27 26 28 28 26 28 33 34 35 35 35 35 36 36
Lifted_Index
12 12 11 11 10 10 10 10 10 10 10 10 9 8 7 7 8 8 8 8 8 8 9 7 5 6 8 8 6 5 4 4 4 3 4 4 3 4 5 4 1 0 -0 -1 -2
12 12 11 10 10 10 10 10 10 10 10 10 9 8 8 8 8 8 8 9 9 9 9 8 6 5 7 8 7 4 3 3 3 3 4 4 4 5 5 4 2 0 -0 -2 -3
12 12 11 10 10 10 10 10 10 10 10 10 10 10 9 9 8 7 8 9 9 9 10 9 7 5 5 7 7 5 4 2 2 2 4 4 5 5 5 3 2 1 0 -1 -2
11 11 11 10 10 9 9 9 10 10 10 10 10 10 10 9 7 7 6 7 8 9 10 10 9 7 5 6 7 7 5 4 3 3 4 4 5 6 5 4 3 3 3 2 1
11 11 10 10 10 9 9 9 9 10 10 10 11 11 11 9 8 6 5 5 7 9 10 10 9 8 6 5 6 6 7 6 6 6 5 4 5 6 5 5 5 5 5 5 5
10 10 10 10 10 9 9 8 9 9 10 10 11 11 10 9 9 7 5 6 8 9 9 9 9 8 7 6 6 6 7 7 7 7 7 6 6 6 6 6 6 6 6 7 7
11 11 11 10 10 10 9 9 9 9 10 10 11 10 9 9 9 7 6 7 8 9 9 9 9 8 7 7 7 7 7 7 7 7 7 7 6 6 7 6 6 6 7 7 8
11 11 11 11 10 10 10 9 9 9 9 10 10 10 9 9 8 7 7 8 9 10 10 10 9 9 8 8 8 8 7 6 6 6 7 7 6 6 7 7 7 7 7 7 7
12 11 11 11 11 11 11 10 9 9 9 9 10 9 9 8 7 7 7 8 10 10 10 10 10 9 8 7 7 6 5 4 5 6 6 6 6 6 7 7 7 7 7 7 7
12 12 11 11 11 11 11 10 9 8 8 8 8 9 8 7 7 7 7 8 9 10 10 9 8 7 7 6 5 5 4 4 4 5 6 6 7 7 7 7 7 7 7 6 6
12 12 12 11 11 11 10 9 8 7 6 5 6 7 7 6 6 6 7 7 8 8 8 7 6 6 5 5 5 5 4 4 4 5 6 6 7 7 7 7 7 7 6 6 6
12 12 12 11 11 10 9 8 7 6 4 4 4 5 5 5 5 6 7 7 6 7 7 6 6 5 5 5 5 5 5 4 5 5 6 6 7 7 7 7 6 6 6 6 6
12 12 12 11 10 9 7 7 7 6 4 2 3 4 4 4 4 5 6 6 6 6 6 6 6 6 6 6 6 5 5 5 4 5 5 5 5 6 7 6 6 6 5 5 5
12 12 11 11 9 7 6 5 6 6 4 2 2 3 3 4 4 4 5 5 6 6 6 6 6 6 6 6 6 6 6 5 5 4 5 5 4 5 6 6 6 6 6 6 5
11 11 11 10 8 6 5 5 6 5 3 2 2 3 3 3 3 4 4 5 5 5 5 5 6 6 6 6 6 6 6 5 5 5 4 4 4 5 6 6 6 6 6 5 5
11 11 10 9 7 6 5 4 5 4 2 2 2 2 3 3 3 3 4 5 5 5 5 5 5 5 5 5 5 5 5 4 4 4 4 4 4 5 5 6 5 5 5 5 5
10 9 9 8 6 5 4 3 3 3 2 1 2 2 2 2 3 3 3 4 5 4 4 4 4 4 4 4 4 4 4 3 2 2 2 3 4 4 5 5 5 4 4 4 4
9 8 7 7 6 4 3 2 2 2 1 1 1 2 2 2 3 3 3 3 4 4 3 3 3 4 4 4 4 4 3 2 1 1 2 4 4 5 5 4 4 4 4 4 4
7 7 6 5 4 3 2 2 2 1 0 0 0 1 1 2 2 2 2 3 3 3 3 2 2 2 3 3 2 3 3 2 2 2 3 4 4 4 4 4 4 4 4 3 3
6 5 4 3 2 1 1 1 1 1 -0 -0 0 1 1 1 1 2 2 2 3 3 2 2 1 1 1 1 1 1 2 2 2 2 2 3 4 4 3 3 3 3 3 3 3
6 4 2 1 1 1 1 1 1 0 -0 0 0 0 1 1 1 1 1 1 2 2 2 1 1 1 0 0 0 1 1 1 1 1 1 2 3 3 2 2 2 2 2 3 3
5 3 1 -0 -0 0 0 0 0 -0 -0 1 1 1 0 0 0 0 0 0 1 1 1 1 0 0 0 0 1 1 1 1 1 2 2 2 2 2 2 1 1 1 2 3 3
4 3 1 -1 -1 -0 -0 -0 -0 -1 -0 1 1 1 1 0 -0 -0 -0 -0 0 0 1 0 0 0 0 1 1 2 2 2 2 2 2 2 2 2 1 1 1 2 3 3 3
3 2 0 -1 -1 -1 -1 -1 -1 -1 -0 1 1 1 1 0 0 -0 -0 -0 0 0 1 1 1 0 1 2 3 3 3 3 3 3 3 3 3 2 2 2 2 3 3 3 3
2 1 0 -0 -1 -1 -1 -1 -1 -1 -1 0 1 1 0 -0 -0 -0 -0 -0 0 1 1 2 2 2 2 3 4 4 4 4 4 4 4 4 4 4 4 4 4 4 4 4 4
1 1 1 0 -0 -0 -0 -0 -1 -1 -1 -0 0 0 0 -0 -0 0 1 1 1 2 2 2 3 3 3 4 4 4 4 5 5 5 4 4 4 5 5 4 4 4 4 4 4
1 1 1 1 0 -0 -0 -0 -0 -1 -0 -0 -0 0 0 0 0 1 1 1 2 2 2 3 3 3 4 4 4 3 4 4 5 5 5 4 4 4 4 4 4 4 4 4 4